Hourly Weather Bolshie Litvinovichi

Today, 1 August, Sunday

Time Temperature Precipitation Wind Pressure Humidity
00:00 +19°C° 0.2 mm 2 mps 745 mmHg 87%
01:00 +19°C° 0.2 mm 2 mps 745 mmHg 90%
02:00 +19°C° 0 mm 2 mps 745 mmHg 93%
03:00 +19°C° 0.1 mm 2 mps 745 mmHg 93%
04:00 +20°C° 0.1 mm 1 mps 745 mmHg 93%
05:00 +20°C° 0.1 mm 1 mps 745 mmHg 93%
06:00 +21°C° 0.1 mm 1 mps 745 mmHg 89%
07:00 +22°C° 0.1 mm 1 mps 745 mmHg 85%
08:00 +23°C° 0 mm 1 mps 745 mmHg 82%
09:00 +24°C° 0 mm 1 mps 745 mmHg 74%
10:00 +26°C° 0 mm 1 mps 745 mmHg 66%
11:00 +28°C° 0 mm 2 mps 746 mmHg 58%
12:00 +28°C° 0 mm 2 mps 745 mmHg 55%
13:00 +29°C° 0 mm 2 mps 745 mmHg 52%
14:00 +30°C° 0 mm 1 mps 745 mmHg 48%
15:00 +30°C° 0 mm 2 mps 745 mmHg 48%
16:00 +30°C° 0 mm 2 mps 745 mmHg 48%
17:00 +30°C° 0 mm 2 mps 744 mmHg 48%
18:00 +28°C° 0 mm 2 mps 744 mmHg 54%
19:00 +27°C° 0 mm 2 mps 744 mmHg 59%
20:00 +25°C° 0 mm 2 mps 744 mmHg 65%
21:00 +24°C° 0 mm 2 mps 744 mmHg 69%
22:00 +23°C° 0 mm 2 mps 744 mmHg 73%
23:00 +21°C° 0 mm 2 mps 744 mmHg 77%

Tomorrow, 2 August, Monday

Time Temperature Precipitation Wind Pressure Humidity
00:00 +21°C° 0 mm 2 mps 743 mmHg 78%
01:00 +21°C° 0 mm 3 mps 743 mmHg 80%
02:00 +21°C° 0 mm 3 mps 743 mmHg 82%
03:00 +21°C° 0 mm 3 mps 742 mmHg 82%
04:00 +21°C° 0 mm 3 mps 741 mmHg 82%
05:00 +21°C° 0 mm 3 mps 741 mmHg 83%
06:00 +23°C° 0 mm 4 mps 741 mmHg 75%
07:00 +25°C° 0 mm 5 mps 741 mmHg 68%
08:00 +27°C° 0 mm 5 mps 740 mmHg 61%
09:00 +28°C° 0 mm 5 mps 740 mmHg 57%
10:00 +29°C° 0 mm 6 mps 740 mmHg 52%
11:00 +30°C° 0 mm 6 mps 740 mmHg 47%
12:00 +30°C° 0 mm 6 mps 740 mmHg 49%
13:00 +30°C° 0 mm 6 mps 740 mmHg 51%
14:00 +29°C° 0 mm 6 mps 740 mmHg 52%
15:00 +27°C° 0.2 mm 7 mps 741 mmHg 59%
16:00 +26°C° 0.2 mm 7 mps 741 mmHg 66%
17:00 +23°C° 0.2 mm 7 mps 742 mmHg 73%
18:00 +22°C° 0 mm 7 mps 742 mmHg 75%
19:00 +20°C° 0 mm 6 mps 743 mmHg 78%
20:00 +17°C° 0 mm 5 mps 744 mmHg 81%
21:00 +17°C° 0 mm 5 mps 744 mmHg 82%
22:00 +16°C° 0 mm 5 mps 745 mmHg 83%
23:00 +17°C° 0 mm 4 mps 745 mmHg 85%

Day after tomorrow, 3 August, Tuesday

Time Temperature Precipitation Wind Pressure Humidity
00:00 +17°C° 0 mm 4 mps 745 mmHg 84%
01:00 +17°C° 0 mm 4 mps 745 mmHg 82%
02:00 +17°C° 0 mm 4 mps 746 mmHg 81%
03:00 +15°C° 0 mm 4 mps 746 mmHg 86%
04:00 +14°C° 0 mm 3 mps 746 mmHg 90%
05:00 +13°C° 0 mm 3 mps 746 mmHg 95%
06:00 +16°C° 0 mm 3 mps 747 mmHg 87%
07:00 +17°C° 0 mm 3 mps 747 mmHg 79%
08:00 +19°C° 0 mm 3 mps 747 mmHg 71%
09:00 +20°C° 0 mm 4 mps 748 mmHg 62%
10:00 +22°C° 0 mm 4 mps 748 mmHg 53%
11:00 +25°C° 0 mm 5 mps 748 mmHg 43%
12:00 +23°C° 0 mm 4 mps 748 mmHg 43%
13:00 +23°C° 0 mm 4 mps 748 mmHg 42%
14:00 +23°C° 0 mm 4 mps 748 mmHg 42%
15:00 +23°C° 0 mm 4 mps 748 mmHg 43%
16:00 +23°C° 0 mm 4 mps 748 mmHg 44%
17:00 +22°C° 0 mm 4 mps 748 mmHg 46%
18:00 +21°C° 0 mm 3 mps 748 mmHg 51%
19:00 +19°C° 0 mm 3 mps 749 mmHg 56%
20:00 +18°C° 0 mm 2 mps 749 mmHg 61%
21:00 +17°C° 0 mm 2 mps 749 mmHg 63%
22:00 +17°C° 0 mm 2 mps 749 mmHg 64%
23:00 +17°C° 0 mm 2 mps 749 mmHg 65%

4 August, Wednesday

Time Temperature Precipitation Wind Pressure Humidity
00:00 +16°C° 0 mm 2 mps 750 mmHg 70%
01:00 +15°C° 0 mm 2 mps 750 mmHg 75%
02:00 +14°C° 0 mm 2 mps 750 mmHg 80%
03:00 +14°C° 0 mm 2 mps 750 mmHg 82%
04:00 +13°C° 0 mm 2 mps 750 mmHg 85%
05:00 +13°C° 0 mm 2 mps 750 mmHg 87%
06:00 +15°C° 0 mm 2 mps 751 mmHg 78%
07:00 +17°C° 0 mm 2 mps 751 mmHg 70%
08:00 +20°C° 0 mm 2 mps 751 mmHg 61%
09:00 +21°C° 0 mm 2 mps 751 mmHg 55%
10:00 +24°C° 0 mm 2 mps 751 mmHg 49%
11:00 +25°C° 0 mm 2 mps 751 mmHg 43%
12:00 +26°C° 0 mm 2 mps 751 mmHg 40%
13:00 +26°C° 0 mm 2 mps 750 mmHg 38%
14:00 +27°C° 0 mm 2 mps 750 mmHg 36%
15:00 +27°C° 0 mm 1 mps 750 mmHg 38%
16:00 +26°C° 0 mm 1 mps 750 mmHg 41%
17:00 +26°C° 0 mm 1 mps 750 mmHg 44%
18:00 +24°C° 0 mm 1 mps 750 mmHg 48%
19:00 +23°C° 0 mm 1 mps 750 mmHg 53%
20:00 +21°C° 0 mm 1 mps 750 mmHg 58%
21:00 +20°C° 0.2 mm 1 mps 750 mmHg 65%
22:00 +19°C° 0.2 mm 1 mps 750 mmHg 72%
23:00 +18°C° 0.2 mm 1 mps 750 mmHg 79%

5 August, Thursday

Time Temperature Precipitation Wind Pressure Humidity
00:00 +17°C° 0.1 mm 2 mps 750 mmHg 83%
01:00 +17°C° 0.1 mm 2 mps 749 mmHg 87%
02:00 +17°C° 0.1 mm 3 mps 749 mmHg 91%
03:00 +16°C° 0 mm 2 mps 749 mmHg 93%
04:00 +16°C° 0 mm 2 mps 749 mmHg 95%
05:00 +16°C° 0 mm 2 mps 749 mmHg 97%
06:00 +17°C° 0 mm 2 mps 749 mmHg 93%
07:00 +18°C° 0 mm 2 mps 749 mmHg 89%
08:00 +19°C° 0 mm 2 mps 749 mmHg 85%
09:00 +20°C° 0 mm 3 mps 749 mmHg 80%
10:00 +22°C° 0 mm 3 mps 748 mmHg 75%
11:00 +24°C° 0 mm 3 mps 748 mmHg 70%
12:00 +25°C° 0.2 mm 3 mps 748 mmHg 67%
13:00 +26°C° 0.2 mm 3 mps 748 mmHg 63%
14:00 +27°C° 0.2 mm 3 mps 747 mmHg 59%
15:00 +26°C° 0.2 mm 3 mps 747 mmHg 61%
16:00 +26°C° 0.2 mm 2 mps 747 mmHg 64%
17:00 +26°C° 0.2 mm 2 mps 747 mmHg 66%
18:00 +24°C° 0.5 mm 2 mps 746 mmHg 73%
19:00 +23°C° 0.5 mm 2 mps 746 mmHg 79%
20:00 +20°C° 0.5 mm 2 mps 746 mmHg 86%
21:00 +19°C° 0.8 mm 2 mps 746 mmHg 88%
22:00 +19°C° 0.8 mm 2 mps 745 mmHg 90%
23:00 +19°C° 0.8 mm 2 mps 745 mmHg 92%

6 August, Friday

Time Temperature Precipitation Wind Pressure Humidity
00:00 +18°C° 0.1 mm 2 mps 745 mmHg 93%
01:00 +18°C° 0.1 mm 2 mps 745 mmHg 94%
02:00 +18°C° 0.1 mm 2 mps 745 mmHg 95%
03:00 +18°C° 0.7 mm 2 mps 744 mmHg 96%
04:00 +19°C° 0.7 mm 1 mps 744 mmHg 96%
05:00 +19°C° 0.7 mm 1 mps 744 mmHg 97%
06:00 +19°C° 0.1 mm 2 mps 744 mmHg 95%
07:00 +20°C° 0.1 mm 3 mps 743 mmHg 92%
08:00 +20°C° 0.1 mm 3 mps 743 mmHg 89%
09:00 +23°C° 0 mm 4 mps 743 mmHg 77%
10:00 +26°C° 0 mm 5 mps 743 mmHg 64%
11:00 +29°C° 0 mm 6 mps 742 mmHg 51%
12:00 +29°C° 0 mm 6 mps 742 mmHg 50%
13:00 +30°C° 0 mm 6 mps 742 mmHg 48%
14:00 +30°C° 0 mm 6 mps 742 mmHg 47%
15:00 +29°C° 0.1 mm 5 mps 742 mmHg 52%
16:00 +28°C° 0.1 mm 4 mps 742 mmHg 58%
17:00 +26°C° 0.1 mm 4 mps 742 mmHg 64%
18:00 +25°C° 0 mm 3 mps 742 mmHg 71%
19:00 +24°C° 0 mm 2 mps 742 mmHg 78%
20:00 +21°C° 0 mm 2 mps 742 mmHg 85%
21:00 +21°C° 0.2 mm 2 mps 742 mmHg 88%
22:00 +20°C° 0.2 mm 2 mps 742 mmHg 90%
23:00 +20°C° 0.2 mm 2 mps 742 mmHg 92%
Show more

We Need Your Consent

Meteoprog and our Service Providers may store and access personal data such as cookies, device identifiers or other similar technologies on your device and process such data to personalise content and ads, as well as provide social media features and to analyse the traffic.

  • Store and/or access information on your device

    Cookies, device identifiers or other information can be stored or accessed on your device for the purposes indicated above.

  • Personalised ads and content, ad and content measurement, audience insights, and products development

    Ads and content can be personalised based on a profile. More data can be added to better personalise ads and content. Ad and content performance can be measured. Insights about the audience who saw the ads and content can be derived. Such data can be used to develop or improve user’s experience, systems and software.

By clicking ‘I Agree’ you will allow the use of indicated cookies, device identifiers, web beacons or other similar technologies. Your settings can be changed in the browser on your device.

For certain purposes, legitimate interests may be relied on, rather than consent. You can read more about this in our Privacy and Cookie Policy.